{"data":{"norad_id":45721,"intl_designator":"2020-036A","name":"HAIYANG-1D","alt_names":[],"object_type":"PAYLOAD","status":"ACTIVE","operator":null,"country":"PRC","launch_date":"2020-06-10","launch_site_code":"TAISC","launch_vehicle":null,"mission":null,"orbit_class":"UNKNOWN","rcs_meters":null,"size_class":null,"mass_kg":null,"dimensions":null,"purposes":[],"wikipedia_slug":null,"has_3d_model":false,"image_url":null,"decayed_at":null,"tle_current":{"epoch":"2026-05-25T03:49:25.286016Z","epoch_age_seconds":62110,"freshness":"FRESH","line1":"1 45721U 20036A   26145.15932044  .00000450  00000+0  17615-3 0  9997","line2":"2 45721  98.4544  87.3408 0001989 191.6866 168.4273 14.34165434311673","mean_motion":14.34165434,"eccentricity":0.0001989,"inclination_deg":98.4544,"raan_deg":87.3408,"arg_perigee_deg":191.6866,"mean_anomaly_deg":168.4273,"bstar":0.00017615,"rev_number":31167,"period_min":100.40682656698,"perigee_km":776.41785055994,"apogee_km":779.2644986778,"semimajor_km":7155.9781746189,"source":"CELESTRAK","updated_at":"2026-05-25T13:37:56.221412Z"}}}